When you browse on this site, cookies collect data to enhance your experience and personalize the content and advertising you see.
Visit our Privacy Policy to learn more. By continuing to use the site, you agree to this use of cookies and data.
  • In France
  • List of Countries
  • For 7 days
  • Water Temperature
  • Satellite Maps
  • Weather Map
  • Weather Widgets
  • user-avatar
    Login

    Hourly Weather Jewłach

    Today, 19 April, Friday

    Time Temperature Precipitation Wind Pressure Humidity
    00:00 +9°C° 0.6 mm 5 mps 761 mmHg 77%
    01:00 +10°C° 0.2 mm 4 mps 761 mmHg 77%
    02:00 +10°C° 0.2 mm 4 mps 761 mmHg 78%
    03:00 +8°C° 0.2 mm 4 mps 761 mmHg 78%
    04:00 +8°C° 0.6 mm 4 mps 761 mmHg 80%
    05:00 +9°C° 0.6 mm 3 mps 761 mmHg 82%
    06:00 +9°C° 0.6 mm 3 mps 761 mmHg 84%
    07:00 +9°C° 0.6 mm 3 mps 761 mmHg 84%
    08:00 +9°C° 0.6 mm 3 mps 761 mmHg 83%
    09:00 +9°C° 0.6 mm 3 mps 761 mmHg 83%
    10:00 +9°C° 0.3 mm 3 mps 761 mmHg 81%
    11:00 +10°C° 0.3 mm 4 mps 761 mmHg 80%
    12:00 +10°C° 0.3 mm 4 mps 761 mmHg 78%
    13:00 +10°C° 0.3 mm 4 mps 761 mmHg 78%
    14:00 +10°C° 0.3 mm 4 mps 761 mmHg 78%
    15:00 +10°C° 0.3 mm 4 mps 761 mmHg 78%
    16:00 +10°C° 0.4 mm 4 mps 761 mmHg 80%
    17:00 +8°C° 0.4 mm 5 mps 761 mmHg 82%
    18:00 +8°C° 0.4 mm 5 mps 761 mmHg 84%
    19:00 +8°C° 0.4 mm 5 mps 762 mmHg 85%
    20:00 +7°C° 0.4 mm 5 mps 762 mmHg 87%
    21:00 +7°C° 0.4 mm 5 mps 762 mmHg 89%
    22:00 +7°C° 0.5 mm 5 mps 762 mmHg 89%
    23:00 +6°C° 0.5 mm 5 mps 762 mmHg 89%

    Tomorrow, 20 April, Saturday

    Time Temperature Precipitation Wind Pressure Humidity
    00:00 +6°C° 0.5 mm 5 mps 762 mmHg 89%
    01:00 +6°C° 0.5 mm 4 mps 762 mmHg 89%
    02:00 +6°C° 0.5 mm 4 mps 761 mmHg 89%
    03:00 +5°C° 0.5 mm 4 mps 761 mmHg 90%
    04:00 +5°C° 0.7 mm 4 mps 761 mmHg 89%
    05:00 +5°C° 0.7 mm 4 mps 761 mmHg 89%
    06:00 +5°C° 0.7 mm 4 mps 761 mmHg 88%
    07:00 +6°C° 0.9 mm 4 mps 762 mmHg 87%
    08:00 +6°C° 0.9 mm 4 mps 762 mmHg 85%
    09:00 +6°C° 0.9 mm 4 mps 762 mmHg 84%
    10:00 +7°C° 0.4 mm 5 mps 762 mmHg 80%
    11:00 +8°C° 0.4 mm 5 mps 762 mmHg 77%
    12:00 +9°C° 0.4 mm 5 mps 762 mmHg 73%
    13:00 +10°C° 0 mm 6 mps 762 mmHg 70%
    14:00 +10°C° 0 mm 6 mps 762 mmHg 67%
    15:00 +11°C° 0 mm 6 mps 762 mmHg 64%
    16:00 +12°C° 0 mm 5 mps 762 mmHg 66%
    17:00 +10°C° 0 mm 5 mps 762 mmHg 68%
    18:00 +11°C° 0 mm 4 mps 762 mmHg 70%
    19:00 +10°C° 0 mm 4 mps 763 mmHg 73%
    20:00 +8°C° 0 mm 4 mps 764 mmHg 75%
    21:00 +8°C° 0 mm 4 mps 765 mmHg 78%
    22:00 +7°C° 0 mm 4 mps 765 mmHg 77%
    23:00 +7°C° 0 mm 4 mps 765 mmHg 77%

    Day after tomorrow, 21 April, Sunday

    Time Temperature Precipitation Wind Pressure Humidity
    00:00 +7°C° 0 mm 5 mps 765 mmHg 76%
    01:00 +6°C° 0 mm 4 mps 765 mmHg 78%
    02:00 +7°C° 0 mm 3 mps 764 mmHg 81%
    03:00 +5°C° 0 mm 3 mps 764 mmHg 83%
    04:00 +6°C° 0 mm 2 mps 764 mmHg 84%
    05:00 +6°C° 0 mm 2 mps 765 mmHg 84%
    06:00 +6°C° 0 mm 2 mps 765 mmHg 85%
    07:00 +7°C° 0 mm 3 mps 765 mmHg 79%
    08:00 +9°C° 0 mm 3 mps 765 mmHg 73%
    09:00 +10°C° 0 mm 4 mps 765 mmHg 67%
    10:00 +11°C° 0 mm 4 mps 764 mmHg 64%
    11:00 +12°C° 0 mm 5 mps 764 mmHg 62%
    12:00 +12°C° 0 mm 5 mps 763 mmHg 59%
    13:00 +13°C° 0 mm 5 mps 763 mmHg 58%
    14:00 +13°C° 0 mm 5 mps 763 mmHg 57%
    15:00 +13°C° 0 mm 4 mps 763 mmHg 57%
    16:00 +13°C° 0 mm 4 mps 763 mmHg 59%
    17:00 +13°C° 0 mm 4 mps 763 mmHg 61%
    18:00 +12°C° 0 mm 3 mps 763 mmHg 63%
    19:00 +12°C° 0 mm 4 mps 764 mmHg 65%
    20:00 +11°C° 0 mm 4 mps 764 mmHg 67%
    21:00 +11°C° 0 mm 4 mps 765 mmHg 69%
    22:00 +10°C° 0 mm 4 mps 765 mmHg 72%
    23:00 +8°C° 0 mm 4 mps 765 mmHg 76%

    22 April, Monday

    Time Temperature Precipitation Wind Pressure Humidity
    00:00 +9°C° 0 mm 3 mps 765 mmHg 79%
    01:00 +8°C° 0 mm 3 mps 765 mmHg 81%
    02:00 +8°C° 0 mm 2 mps 765 mmHg 83%
    03:00 +8°C° 0 mm 2 mps 765 mmHg 85%
    04:00 +8°C° 0 mm 2 mps 765 mmHg 85%
    05:00 +8°C° 0 mm 2 mps 765 mmHg 85%
    06:00 +8°C° 0 mm 2 mps 765 mmHg 84%
    07:00 +9°C° 0 mm 2 mps 765 mmHg 79%
    08:00 +10°C° 0 mm 2 mps 764 mmHg 73%
    09:00 +11°C° 0 mm 3 mps 764 mmHg 67%
    10:00 +12°C° 0 mm 3 mps 764 mmHg 63%
    11:00 +12°C° 0 mm 3 mps 763 mmHg 58%
    12:00 +13°C° 0 mm 4 mps 763 mmHg 54%
    13:00 +13°C° 0 mm 4 mps 763 mmHg 54%
    14:00 +13°C° 0 mm 4 mps 763 mmHg 55%
    15:00 +13°C° 0 mm 5 mps 763 mmHg 56%
    16:00 +12°C° 0 mm 4 mps 763 mmHg 58%
    17:00 +12°C° 0 mm 3 mps 763 mmHg 61%
    18:00 +12°C° 0 mm 3 mps 763 mmHg 63%
    19:00 +11°C° 0.2 mm 3 mps 764 mmHg 66%
    20:00 +11°C° 0.2 mm 3 mps 765 mmHg 68%
    21:00 +10°C° 0.2 mm 4 mps 765 mmHg 71%
    22:00 +10°C° 0.2 mm 3 mps 765 mmHg 74%
    23:00 +10°C° 0.2 mm 3 mps 766 mmHg 77%

    23 April, Tuesday

    Time Temperature Precipitation Wind Pressure Humidity
    00:00 +9°C° 0.2 mm 2 mps 766 mmHg 80%
    01:00 +9°C° 0 mm 2 mps 766 mmHg 81%
    02:00 +10°C° 0 mm 1 mps 766 mmHg 83%
    03:00 +9°C° 0 mm 1 mps 766 mmHg 84%
    04:00 +10°C° 0 mm 1 mps 766 mmHg 83%
    05:00 +9°C° 0 mm 0 mps 767 mmHg 83%
    06:00 +9°C° 0 mm 0 mps 767 mmHg 83%
    07:00 +11°C° 0 mm 1 mps 767 mmHg 77%
    08:00 +12°C° 0 mm 1 mps 767 mmHg 72%
    09:00 +13°C° 0 mm 1 mps 767 mmHg 67%
    10:00 +14°C° 0 mm 3 mps 767 mmHg 61%
    11:00 +15°C° 0 mm 4 mps 767 mmHg 55%
    12:00 +16°C° 0 mm 5 mps 767 mmHg 49%
    13:00 +16°C° 0 mm 5 mps 767 mmHg 46%
    14:00 +17°C° 0 mm 5 mps 767 mmHg 44%
    15:00 +17°C° 0 mm 5 mps 767 mmHg 41%
    16:00 +16°C° 0 mm 5 mps 767 mmHg 45%
    17:00 +16°C° 0 mm 5 mps 767 mmHg 49%
    18:00 +15°C° 0 mm 5 mps 768 mmHg 52%
    19:00 +14°C° 0 mm 5 mps 768 mmHg 54%
    20:00 +13°C° 0 mm 6 mps 769 mmHg 55%
    21:00 +11°C° 0 mm 6 mps 769 mmHg 57%
    22:00 +10°C° 0 mm 5 mps 769 mmHg 58%
    23:00 +10°C° 0 mm 5 mps 769 mmHg 59%

    24 April, Wednesday

    Time Temperature Precipitation Wind Pressure Humidity
    00:00 +10°C° 0 mm 4 mps 769 mmHg 60%
    01:00 +10°C° 0 mm 3 mps 769 mmHg 63%
    02:00 +9°C° 0 mm 3 mps 769 mmHg 65%
    03:00 +9°C° 0 mm 2 mps 769 mmHg 68%
    04:00 +9°C° 0 mm 2 mps 770 mmHg 68%
    05:00 +10°C° 0 mm 1 mps 770 mmHg 68%
    06:00 +10°C° 0 mm 1 mps 770 mmHg 68%
    07:00 +11°C° 0 mm 1 mps 770 mmHg 63%
    08:00 +12°C° 0 mm 2 mps 770 mmHg 57%
    09:00 +13°C° 0 mm 2 mps 770 mmHg 51%
    10:00 +14°C° 0 mm 2 mps 769 mmHg 48%
    11:00 +15°C° 0 mm 2 mps 769 mmHg 44%
    12:00 +16°C° 0 mm 2 mps 768 mmHg 41%
    13:00 +17°C° 0 mm 2 mps 768 mmHg 39%
    14:00 +18°C° 0 mm 2 mps 767 mmHg 38%
    15:00 +18°C° 0 mm 2 mps 767 mmHg 37%
    16:00 +18°C° 0 mm 2 mps 767 mmHg 40%
    17:00 +17°C° 0 mm 2 mps 767 mmHg 43%
    18:00 +17°C° 0 mm 3 mps 767 mmHg 46%
    19:00 +15°C° 0 mm 4 mps 767 mmHg 50%
    20:00 +14°C° 0 mm 5 mps 767 mmHg 54%
    21:00 +13°C° 0 mm 6 mps 768 mmHg 58%
    22:00 +12°C° 0 mm 5 mps 768 mmHg 58%
    23:00 +11°C° 0 mm 4 mps 768 mmHg 58%
    Show more